Kosmos-2094

operational
NORAD ID: 20739 Int'l Des: 1990-070 Owner: UNKS Country: SU
LEOCIRCULARPOLAR

Kosmos-2094について

説明を読み込み中...

リアルタイム位置

3D地球を読み込み中...

次回通過

高度履歴

Altitude vs Time

uPlot chart will show altitude changes over time

軌道要素

1 20739U 90070E 26062.19367214 .00000007 00000-0 -21430-4 0 9998
2 20739 82.5811 359.7517 0011283 336.2506 146.5913 12.64752053641820
Epoch: Mar 3, 2026 • Age: 31 hours

現在のステータス

高度 1421.8 km
速度 7.15 km/s
衛星直下点 75.42°N, 119.7°W
打ち上げ日 Aug 8, 1990
運用期間 35.5 years
タイプ other

技術仕様

分類 Payload
質量 225.00 kg
乾燥質量 225.00 kg
総質量 225.00 kg
長さ 1.60 m
直径 0.80 m
スパン 7.00 m
形状 Cyl + Ant
製造者 NPOPM
バスタイプ Strela-3
フェーズステータス In Orbit
所有者/国 UNKS/SU

大規模コンステレーション

Loading constellations...